Regional Weather Roundup
Issued by NWS

Home | Current Version | Previous Version | Text Only | Print | Product List | Glossary Off
Versions: 1 2 3 4 5 6 7 8 9 10 11 12 13 14 15 16 17 18 19 20 21 22 23 24 25 26 27 28 29 30 31 32 33 34 35 36 37 38 39 40 41 42 43 44 45 46 47 48 49 50

000
ASUS43 KOAX 251402
RWRNE

WEATHER ROUNDUP FOR NEBRASKA
NATIONAL WEATHER SERVICE OMAHA NE
900 AM CDT SUN JUN 25 2017

NOTES: SATELLITE DATA IS BEING USED TO AUGMENT CLOUD COVER ABOVE
       12000 FEET.
       "FAIR" INDICATES FEW OR NO CLOUDS BELOW 12,000 FEET WITH NO
       SIGNIFICANT WEATHER AND/OR OBSTRUCTIONS TO VISIBILITY.

  * THESE STATIONS DO NOT REPORT WEATHER SUCH AS RAIN...SNOW OR FOG.

NEZ001>004-019>022-054>056-251500-
NEBRASKA PANHANDLE

CITY           SKY/WX    TMP DP  RH WIND       PRES   REMARKS
SCOTTSBLUFF    CLOUDY    61  36  39 SE9       30.37S
ALLIANCE       CLOUDY    56  40  55 SE7       30.36S
CHADRON        SUNNY     61  39  44 S7        30.35S
GORDON         FAIR      59  39  46 SE6       30.37S
KIMBALL        CLOUDY    56  37  49 E13       30.40R
SIDNEY         CLOUDY    58  33  39 E18       30.39R
$$

NEZ057>060-069>072-079>082-251500-
SOUTHWEST NEBRASKA

CITY           SKY/WX    TMP DP  RH WIND       PRES   REMARKS
NORTH PLATTE   LGT RAIN  55  50  83 SE5       30.39R
IMPERIAL       LGT RAIN  52  44  74 SE10      30.39R
LEXINGTON      CLOUDY    57  44  63 NE3       30.40R
MCCOOK         CLOUDY    55  44  66 E7        30.39R
OGALLALA       CLOUDY    59  40  48 SE7       30.38S
$$

NEZ005>010-023>029-035>040-094-251500-
NORTH CENTRAL NEBRASKA

CITY           SKY/WX    TMP DP  RH WIND       PRES   REMARKS
VALENTINE      MOSUNNY   61  37  41 VRB3      30.37S
AINSWORTH      SUNNY     61  42  50 NW3       30.37S
BROKEN BOW     CLOUDY    59  42  53 CALM      30.37R
O`NEILL        SUNNY     60  45  56 NW7       30.36S
ORD            MOSUNNY   60  43  53 SW3       30.36R
THEDFORD       CLOUDY    59  39  47 CALM      30.39R
$$

NEZ041-046>049-061>064-073>077-083>087-251500-
SOUTH CENTRAL NEBRASKA

CITY           SKY/WX    TMP DP  RH WIND       PRES   REMARKS
GRAND ISLAND   CLOUDY    58  45  62 CALM      30.38R
AURORA         MOSUNNY   59  45  59 CALM      30.37S
HASTINGS       CLOUDY    58  44  60 NE3       30.38R
HEBRON         CLOUDY    60  46  58 NE5       30.36R
HOLDREGE       CLOUDY    56  45  65 NE3       30.39R
KEARNEY *      CLOUDY    55  45  67 CALM      30.39R
YORK           CLOUDY    61  45  55 CALM      30.36S
$$

NEZ011>018-030>034-042>045-251500-
NORTHEAST NEBRASKA

CITY           SKY/WX    TMP DP  RH WIND       PRES   REMARKS
NORFOLK        SUNNY     60  44  55 W7        30.33R
ALBION         SUNNY     62  43  49 CALM      30.36S
BLAIR          SUNNY     62  43  49 NW15      30.32R
FREMONT        SUNNY     63  42  47 NW10      30.34R
TEKAMAH        SUNNY     63  44  50 NW16      30.32R
WAYNE          SUNNY     62  43  51 N15G21    30.33R
$$

NEZ050>053-065>068-078-088>093-251500-
SOUTHEAST NEBRASKA

CITY           SKY/WX    TMP DP  RH WIND       PRES   REMARKS
LINCOLN        MOSUNNY   64  44  48 NW6       30.35R
OMAHA EPPLEY   MOSUNNY   64  45  49 N12       30.32R
BEATRICE       CLOUDY    61  49  62 N3        30.34F
FALLS CITY     SUNNY     65  48  54 N8        30.32R
NEBRASKA CITY  MOSUNNY   63  47  57 NW7       30.33R
PLATTSMOUTH    SUNNY     62  47  57 NW6       30.33R
$$

NEZ044-045-051>053-067-251500-
OMAHA AREA

CITY           SKY/WX    TMP DP  RH WIND       PRES   REMARKS
OMAHA EPPLEY   MOSUNNY   64  45  49 N12       30.32R
BLAIR          SUNNY     62  43  49 NW15      30.32R
FREMONT        SUNNY     63  42  47 NW10      30.34R
MILLARD        MOSUNNY   66  43  43 NW9G17    30.32R
OFFUTT AFB     SUNNY     65  41  42 NW10      30.31R
PLATTSMOUTH    SUNNY     62  47  57 NW6       30.33R
WAHOO          FAIR      64  40  42 N9        30.34R
$$




USA.gov is the U.S. government's official web portal to all federal, state and local government web resources and services.